Time,TemperatureF,DewpointF,PressureIn,WindDirection,WindDirectionDegrees,WindSpeedMPH,WindSpeedGustMPH,Humidity,HourlyPrecipIn,Conditions,Clouds,dailyrainin,SoftwareType,DateUTC
2013-02-20 00:00:00,27.1,18.3,29.88,West,265,0.0,0.0,69,0.00,,,0.00,WUHU216WMR968SP,2013-02-20 06:00:00,
2013-02-20 00:05:00,27.1,18.3,29.88,West,265,0.0,0.0,69,0.00,,,0.00,WUHU216WMR968SP,2013-02-20 06:05:00,
2013-02-20 00:10:00,27.0,18.2,29.88,West,265,0.0,0.0,69,0.00,,,0.00,WUHU216WMR968SP,2013-02-20 06:10:00,
2013-02-20 00:15:00,27.0,18.2,29.88,West,265,0.0,0.0,69,0.00,,,0.00,WUHU216WMR968SP,2013-02-20 06:15:00,
2013-02-20 00:20:00,26.8,18.0,29.85,West,265,0.0,0.0,69,0.00,,,0.00,WUHU216WMR968SP,2013-02-20 06:20:00,
2013-02-20 00:25:00,26.8,18.0,29.85,West,265,0.0,0.0,69,0.00,,,0.00,WUHU216WMR968SP,2013-02-20 06:25:00,
2013-02-20 00:30:00,27.0,18.2,29.85,West,265,0.0,0.0,69,0.00,,,0.00,WUHU216WMR968SP,2013-02-20 06:30:00,
2013-02-20 00:35:00,27.1,19.3,29.85,West,265,0.0,0.0,72,0.00,,,0.00,WUHU216WMR968SP,2013-02-20 06:35:00,
2013-02-20 00:40:00,27.0,19.5,29.85,West,265,0.0,0.0,73,0.00,,,0.00,WUHU216WMR968SP,2013-02-20 06:40:00,
2013-02-20 00:45:00,26.6,19.5,29.85,West,265,0.0,0.0,74,0.00,,,0.00,WUHU216WMR968SP,2013-02-20 06:45:00,
2013-02-20 00:50:00,26.4,19.6,29.85,West,265,0.0,0.0,75,0.00,,,0.00,WUHU216WMR968SP,2013-02-20 06:50:00,
2013-02-20 00:55:00,26.2,19.4,29.85,West,265,0.0,0.0,75,0.00,,,0.00,WUHU216WMR968SP,2013-02-20 06:55:00,
2013-02-20 01:00:00,26.1,19.3,29.85,West,265,0.0,0.0,75,0.00,,,0.00,WUHU216WMR968SP,2013-02-20 07:00:00,
2013-02-20 01:05:00,27.0,20.5,29.85,West,265,0.0,0.0,76,0.00,,,0.00,WUHU216WMR968SP,2013-02-20 07:05:00,
2013-02-20 01:10:00,27.3,21.1,29.85,North,0,0.0,2.2,77,0.00,,,0.00,WUHU216WMR968SP,2013-02-20 07:10:00,
2013-02-20 01:15:00,27.5,21.6,29.85,North,357,0.0,2.2,78,0.00,,,0.00,WUHU216WMR968SP,2013-02-20 07:15:00,
2013-02-20 01:20:00,27.5,21.6,29.85,North,357,0.0,0.0,78,0.00,,,0.00,WUHU216WMR968SP,2013-02-20 07:20:00,
2013-02-20 01:25:00,27.9,22.2,29.85,North,357,0.0,0.0,79,0.00,,,0.00,WUHU216WMR968SP,2013-02-20 07:25:00,
2013-02-20 01:30:00,27.9,22.2,29.85,North,357,0.0,0.0,79,0.00,,,0.00,WUHU216WMR968SP,2013-02-20 07:30:00,
2013-02-20 01:35:00,27.5,21.9,29.85,North,10,0.0,0.0,79,0.00,,,0.00,WUHU216WMR968SP,2013-02-20 07:35:00,
2013-02-20 01:40:00,27.7,22.0,29.85,NNE,14,0.0,0.0,79,0.00,,,0.00,WUHU216WMR968SP,2013-02-20 07:40:00,
2013-02-20 01:45:00,27.9,22.2,29.85,North,4,0.0,0.0,79,0.00,,,0.00,WUHU216WMR968SP,2013-02-20 07:45:00,
2013-02-20 01:50:00,27.9,22.2,29.85,North,4,0.0,0.0,79,0.00,,,0.00,WUHU216WMR968SP,2013-02-20 07:50:00,
2013-02-20 01:55:00,27.9,22.2,29.85,North,4,0.0,0.0,79,0.00,,,0.00,WUHU216WMR968SP,2013-02-20 07:55:00,
2013-02-20 02:00:00,28.2,22.5,29.85,NNW,345,0.0,2.2,79,0.00,,,0.00,WUHU216WMR968SP,2013-02-20 08:00:00,
2013-02-20 02:05:00,28.6,22.6,29.88,NNW,345,0.0,2.2,78,0.00,,,0.00,WUHU216WMR968SP,2013-02-20 08:05:00,
2013-02-20 02:10:00,28.8,22.8,29.88,North,7,0.0,0.0,78,0.00,,,0.00,WUHU216WMR968SP,2013-02-20 08:10:00,
2013-02-20 02:15:00,28.9,22.9,29.88,NNE,12,0.0,0.0,78,0.00,,,0.00,WUHU216WMR968SP,2013-02-20 08:15:00,
2013-02-20 02:20:00,29.3,23.3,29.88,North,0,0.0,0.0,78,0.00,,,0.00,WUHU216WMR968SP,2013-02-20 08:20:00,
2013-02-20 02:25:00,29.7,23.7,29.88,North,3,0.0,0.0,78,0.00,,,0.00,WUHU216WMR968SP,2013-02-20 08:25:00,
2013-02-20 02:30:00,30.2,24.2,29.88,North,0,0.0,0.0,78,0.00,,,0.00,WUHU216WMR968SP,2013-02-20 08:30:00,
2013-02-20 02:35:00,30.0,23.7,29.88,NNE,15,0.0,0.0,77,0.00,,,0.00,WUHU216WMR968SP,2013-02-20 08:35:00,
2013-02-20 02:40:00,30.2,23.6,29.88,North,8,0.0,2.7,76,0.00,,,0.00,WUHU216WMR968SP,2013-02-20 08:40:00,
2013-02-20 02:45:00,30.7,23.1,29.88,NNE,31,0.0,4.9,73,0.00,,,0.00,WUHU216WMR968SP,2013-02-20 08:45:00,
2013-02-20 02:50:00,31.1,22.2,29.88,North,0,0.0,4.9,69,0.00,,,0.00,WUHU216WMR968SP,2013-02-20 08:50:00,
2013-02-20 02:55:00,31.3,21.3,29.88,North,8,0.0,4.0,66,0.00,,,0.00,WUHU216WMR968SP,2013-02-20 08:55:00,
2013-02-20 03:00:00,31.3,17.8,29.88,North,6,0.0,3.6,57,0.00,,,0.00,WUHU216WMR968SP,2013-02-20 09:00:00,
2013-02-20 03:05:00,31.3,16.6,29.88,North,357,0.0,3.6,54,0.00,,,0.00,WUHU216WMR968SP,2013-02-20 09:05:00,
2013-02-20 03:10:00,31.3,13.8,29.88,North,10,0.0,3.1,48,0.00,,,0.00,WUHU216WMR968SP,2013-02-20 09:10:00,
2013-02-20 03:15:00,31.1,12.6,29.88,NNE,17,0.0,2.7,46,0.00,,,0.00,WUHU216WMR968SP,2013-02-20 09:15:00,
2013-02-20 03:20:00,31.1,11.0,29.88,North,0,0.0,4.0,43,0.00,,,0.00,WUHU216WMR968SP,2013-02-20 09:20:00,
2013-02-20 03:25:00,30.9,10.3,29.88,NNW,340,0.0,4.0,42,0.00,,,0.00,WUHU216WMR968SP,2013-02-20 09:25:00,
2013-02-20 03:30:00,30.7,10.1,29.88,North,353,0.0,3.1,42,0.00,,,0.00,WUHU216WMR968SP,2013-02-20 09:30:00,
2013-02-20 03:35:00,30.9,9.8,29.85,North,8,3.0,6.7,41,0.00,,,0.00,WUHU216WMR968SP,2013-02-20 09:35:00,
2013-02-20 03:40:00,30.9,9.8,29.85,North,6,0.0,6.7,41,0.00,,,0.00,WUHU216WMR968SP,2013-02-20 09:40:00,
2013-02-20 03:45:00,30.9,9.2,29.85,NNE,29,2.7,5.4,40,0.00,,,0.00,WUHU216WMR968SP,2013-02-20 09:45:00,
2013-02-20 03:50:00,30.9,9.2,29.85,NNE,19,2.2,6.3,40,0.00,,,0.00,WUHU216WMR968SP,2013-02-20 09:50:00,
2013-02-20 03:55:00,30.7,9.0,29.85,North,11,0.0,6.3,40,0.00,,,0.00,WUHU216WMR968SP,2013-02-20 09:55:00,
2013-02-20 04:00:00,30.7,9.0,29.85,North,10,0.0,3.6,40,0.00,,,0.00,WUHU216WMR968SP,2013-02-20 10:00:00,
2013-02-20 04:05:00,30.9,9.2,29.85,NNE,27,0.0,4.9,40,0.00,,,0.00,WUHU216WMR968SP,2013-02-20 10:05:00,
2013-02-20 04:10:00,30.9,9.2,29.85,NNE,15,0.0,5.4,40,0.00,,,0.00,WUHU216WMR968SP,2013-02-20 10:10:00,
2013-02-20 04:15:00,30.9,9.2,29.85,NNE,25,0.0,5.4,40,0.00,,,0.00,WUHU216WMR968SP,2013-02-20 10:15:00,
2013-02-20 04:20:00,30.9,9.2,29.85,NNE,26,2.6,6.7,40,0.00,,,0.00,WUHU216WMR968SP,2013-02-20 10:20:00,
2013-02-20 04:25:00,30.9,8.6,29.85,NNE,27,0.0,6.7,39,0.00,,,0.00,WUHU216WMR968SP,2013-02-20 10:25:00,
2013-02-20 04:30:00,30.9,8.0,29.85,NNE,31,2.2,4.0,38,0.00,,,0.00,WUHU216WMR968SP,2013-02-20 10:30:00,
2013-02-20 04:35:00,30.7,7.9,29.85,North,5,0.0,4.0,38,0.00,,,0.00,WUHU216WMR968SP,2013-02-20 10:35:00,
2013-02-20 04:40:00,30.7,7.9,29.85,NNE,28,0.0,5.4,38,0.00,,,0.00,WUHU216WMR968SP,2013-02-20 10:40:00,
2013-02-20 04:45:00,30.6,7.8,29.85,NE,50,0.0,5.4,38,0.00,,,0.00,WUHU216WMR968SP,2013-02-20 10:45:00,
2013-02-20 04:50:00,30.4,7.6,29.85,NE,45,0.0,2.2,38,0.00,,,0.00,WUHU216WMR968SP,2013-02-20 10:50:00,
2013-02-20 04:55:00,30.2,8.0,29.85,NE,51,0.0,2.7,39,0.00,,,0.00,WUHU216WMR968SP,2013-02-20 10:55:00,
2013-02-20 05:00:00,30.0,7.2,29.85,North,9,0.0,2.7,38,0.00,,,0.00,WUHU216WMR968SP,2013-02-20 11:00:00,
2013-02-20 05:05:00,30.2,7.4,29.88,NE,40,0.0,4.0,38,0.00,,,0.00,WUHU216WMR968SP,2013-02-20 11:05:00,
2013-02-20 05:10:00,30.2,7.4,29.88,NE,35,0.0,4.0,38,0.00,,,0.00,WUHU216WMR968SP,2013-02-20 11:10:00,
2013-02-20 05:16:00,30.0,7.8,29.88,NNE,14,0.0,2.2,39,0.00,,,0.00,WUHU216WMR968SP,2013-02-20 11:16:00,
2013-02-20 05:21:00,30.0,7.8,29.88,North,3,0.0,2.2,39,0.00,,,0.00,WUHU216WMR968SP,2013-02-20 11:21:00,
2013-02-20 05:26:00,29.8,7.6,29.88,NNW,346,0.0,0.0,39,0.00,,,0.00,WUHU216WMR968SP,2013-02-20 11:26:00,
2013-02-20 05:31:00,29.7,7.5,29.88,NNE,20,0.0,0.0,39,0.00,,,0.00,WUHU216WMR968SP,2013-02-20 11:31:00,
2013-02-20 05:36:00,29.5,7.4,29.88,NNE,28,0.0,0.0,39,0.00,,,0.00,WUHU216WMR968SP,2013-02-20 11:36:00,
2013-02-20 05:41:00,29.3,7.2,29.88,NE,36,0.0,2.7,39,0.00,,,0.00,WUHU216WMR968SP,2013-02-20 11:41:00,
2013-02-20 05:46:00,29.1,7.0,29.88,NNE,24,0.0,2.7,39,0.00,,,0.00,WUHU216WMR968SP,2013-02-20 11:46:00,
2013-02-20 05:51:00,28.8,7.3,29.88,NE,46,0.0,0.0,40,0.00,,,0.00,WUHU216WMR968SP,2013-02-20 11:51:00,
2013-02-20 05:56:00,28.6,7.1,29.88,NE,44,0.0,0.0,40,0.00,,,0.00,WUHU216WMR968SP,2013-02-20 11:56:00,
2013-02-20 06:01:00,28.2,7.3,29.88,North,0,0.0,0.0,41,0.00,,,0.00,WUHU216WMR968SP,2013-02-20 12:01:00,
2013-02-20 06:06:00,28.2,7.3,29.88,North,0,0.0,0.0,41,0.00,,,0.00,WUHU216WMR968SP,2013-02-20 12:06:00,
2013-02-20 06:11:00,28.2,7.3,29.88,NE,39,0.0,0.0,41,0.00,,,0.00,WUHU216WMR968SP,2013-02-20 12:11:00,
2013-02-20 06:16:00,28.2,7.3,29.88,NNE,17,0.0,0.0,41,0.00,,,0.00,WUHU216WMR968SP,2013-02-20 12:16:00,
2013-02-20 06:21:00,28.2,7.3,29.88,NE,40,0.0,0.0,41,0.00,,,0.00,WUHU216WMR968SP,2013-02-20 12:21:00,
2013-02-20 06:26:00,28.4,7.5,29.88,North,353,0.0,2.7,41,0.00,,,0.00,WUHU216WMR968SP,2013-02-20 12:26:00,
2013-02-20 06:31:00,28.6,7.7,29.88,NE,36,0.0,2.7,41,0.00,,,0.00,WUHU216WMR968SP,2013-02-20 12:31:00,
2013-02-20 06:36:00,28.8,7.3,29.88,NNE,22,0.0,2.2,40,0.00,,,0.00,WUHU216WMR968SP,2013-02-20 12:36:00,
2013-02-20 06:41:00,28.9,7.4,29.88,NE,44,3.1,5.4,40,0.00,,,0.00,WUHU216WMR968SP,2013-02-20 12:41:00,
2013-02-20 06:46:00,29.1,7.0,29.88,NNE,33,0.0,5.4,39,0.00,,,0.00,WUHU216WMR968SP,2013-02-20 12:46:00,
2013-02-20 06:51:00,29.3,7.2,29.88,NE,34,0.0,3.1,39,0.00,,,0.00,WUHU216WMR968SP,2013-02-20 12:51:00,
2013-02-20 06:56:00,29.5,6.8,29.88,North,10,0.0,4.0,38,0.00,,,0.00,WUHU216WMR968SP,2013-02-20 12:56:00,
2013-02-20 07:01:00,29.7,6.4,29.88,NNE,13,2.2,4.9,37,0.00,,,0.00,WUHU216WMR968SP,2013-02-20 13:01:00,
2013-02-20 07:06:00,29.7,6.4,29.91,North,1,2.2,5.8,37,0.00,,,0.00,WUHU216WMR968SP,2013-02-20 13:06:00,
2013-02-20 07:11:00,29.8,6.5,29.91,North,1,0.0,5.8,37,0.00,,,0.00,WUHU216WMR968SP,2013-02-20 13:11:00,
2013-02-20 07:16:00,29.8,5.8,29.91,NE,39,0.0,2.7,36,0.00,,,0.00,WUHU216WMR968SP,2013-02-20 13:16:00,
2013-02-20 07:21:00,30.0,6.0,29.91,North,4,0.0,3.6,36,0.00,,,0.00,WUHU216WMR968SP,2013-02-20 13:21:00,
2013-02-20 07:26:00,30.2,6.2,29.91,NNE,27,0.0,3.6,36,0.00,,,0.00,WUHU216WMR968SP,2013-02-20 13:26:00,
2013-02-20 07:31:00,30.2,6.2,29.91,NNE,29,0.0,0.0,36,0.00,,,0.00,WUHU216WMR968SP,2013-02-20 13:31:00,
2013-02-20 07:36:00,30.6,5.9,29.94,North,358,2.2,3.1,35,0.00,,,0.00,WUHU216WMR968SP,2013-02-20 13:36:00,
2013-02-20 07:41:00,30.7,6.0,29.94,North,4,0.0,3.1,35,0.00,,,0.00,WUHU216WMR968SP,2013-02-20 13:41:00,
2013-02-20 07:46:00,31.1,5.7,29.94,NNW,338,2.2,5.4,34,0.00,,,0.00,WUHU216WMR968SP,2013-02-20 13:46:00,
2013-02-20 07:51:00,31.1,6.4,29.94,NNW,343,0.0,5.4,35,0.00,,,0.00,WUHU216WMR968SP,2013-02-20 13:51:00,
2013-02-20 07:56:00,31.3,5.9,29.94,NNE,23,2.2,4.0,34,0.00,,,0.00,WUHU216WMR968SP,2013-02-20 13:56:00,
2013-02-20 08:01:00,31.3,5.9,29.94,NNW,344,0.0,5.4,34,0.00,,,0.00,WUHU216WMR968SP,2013-02-20 14:01:00,
2013-02-20 08:06:00,31.5,6.1,29.94,NNE,24,0.0,5.4,34,0.00,,,0.00,WUHU216WMR968SP,2013-02-20 14:06:00,
2013-02-20 08:11:00,31.8,6.4,29.94,NE,47,2.7,5.8,34,0.00,,,0.00,WUHU216WMR968SP,2013-02-20 14:11:00,
2013-02-20 08:16:00,31.8,6.4,29.94,North,8,2.2,5.8,34,0.00,,,0.00,WUHU216WMR968SP,2013-02-20 14:16:00,
2013-02-20 08:21:00,32.0,6.5,29.94,NNE,18,2.2,5.8,34,0.00,,,0.00,WUHU216WMR968SP,2013-02-20 14:21:00,
2013-02-20 08:26:00,32.2,6.7,29.94,NNE,25,2.7,6.7,34,0.00,,,0.00,WUHU216WMR968SP,2013-02-20 14:26:00,
2013-02-20 08:31:00,32.2,6.1,29.94,NNE,23,2.2,6.7,33,0.00,,,0.00,WUHU216WMR968SP,2013-02-20 14:31:00,
2013-02-20 08:36:00,32.2,6.1,29.94,North,0,2.2,5.4,33,0.00,,,0.00,WUHU216WMR968SP,2013-02-20 14:36:00,
2013-02-20 08:41:00,32.0,5.2,29.94,NE,35,0.0,5.4,32,0.00,,,0.00,WUHU216WMR968SP,2013-02-20 14:41:00,
2013-02-20 08:46:00,32.0,5.2,29.94,NNE,24,0.0,3.6,32,0.00,,,0.00,WUHU216WMR968SP,2013-02-20 14:46:00,
2013-02-20 08:51:00,31.8,5.0,29.94,NNE,26,2.7,4.9,32,0.00,,,0.00,WUHU216WMR968SP,2013-02-20 14:51:00,
2013-02-20 08:56:00,31.6,4.9,29.94,NNE,20,0.0,4.9,32,0.00,,,0.00,WUHU216WMR968SP,2013-02-20 14:56:00,
2013-02-20 09:01:00,31.5,4.8,29.94,North,3,2.4,5.4,32,0.00,,,0.00,WUHU216WMR968SP,2013-02-20 15:01:00,
2013-02-20 09:06:00,31.5,4.8,29.94,NNE,29,0.0,5.4,32,0.00,,,0.00,WUHU216WMR968SP,2013-02-20 15:06:00,
2013-02-20 09:11:00,31.6,4.9,29.94,NNE,28,2.8,4.9,32,0.00,,,0.00,WUHU216WMR968SP,2013-02-20 15:11:00,
2013-02-20 09:16:00,31.6,4.9,29.94,NNE,14,3.2,7.6,32,0.00,,,0.00,WUHU216WMR968SP,2013-02-20 15:16:00,
2013-02-20 09:21:00,31.8,5.0,29.94,North,7,0.0,7.6,32,0.00,,,0.00,WUHU216WMR968SP,2013-02-20 15:21:00,
2013-02-20 09:26:00,32.0,5.2,29.94,NNE,20,0.0,5.4,32,0.00,,,0.00,WUHU216WMR968SP,2013-02-20 15:26:00,
2013-02-20 09:31:00,32.0,5.2,29.94,NNE,21,2.2,6.3,32,0.00,,,0.00,WUHU216WMR968SP,2013-02-20 15:31:00,
2013-02-20 09:36:00,32.2,5.4,29.91,NE,34,2.6,8.3,32,0.00,,,0.00,WUHU216WMR968SP,2013-02-20 15:36:00,
2013-02-20 09:41:00,32.4,5.6,29.91,NE,44,3.6,8.3,32,0.00,,,0.00,WUHU216WMR968SP,2013-02-20 15:41:00,
2013-02-20 09:46:00,32.5,5.7,29.91,NNE,14,3.6,6.7,32,0.00,,,0.00,WUHU216WMR968SP,2013-02-20 15:46:00,
2013-02-20 09:51:00,32.7,5.8,29.91,NNE,33,0.0,6.3,32,0.00,,,0.00,WUHU216WMR968SP,2013-02-20 15:51:00,
2013-02-20 09:56:00,33.3,6.4,29.91,NE,34,0.0,5.8,32,0.00,,,0.00,WUHU216WMR968SP,2013-02-20 15:56:00,
2013-02-20 10:01:00,33.8,6.8,29.91,NNW,335,0.0,0.0,32,0.00,,,0.00,WUHU216WMR968SP,2013-02-20 16:01:00,
2013-02-20 10:06:00,34.0,7.0,29.94,North,1,2.2,2.7,32,0.00,,,0.00,WUHU216WMR968SP,2013-02-20 16:06:00,
2013-02-20 10:11:00,33.8,6.1,29.94,NNE,26,0.0,4.5,31,0.00,,,0.00,WUHU216WMR968SP,2013-02-20 16:11:00,
2013-02-20 10:16:00,34.0,6.3,29.94,NE,49,0.0,4.5,31,0.00,,,0.00,WUHU216WMR968SP,2013-02-20 16:16:00,
2013-02-20 10:21:00,34.0,6.3,29.94,NNW,337,2.7,5.4,31,0.00,,,0.00,WUHU216WMR968SP,2013-02-20 16:21:00,
2013-02-20 10:26:00,34.0,6.3,29.94,NNE,18,2.5,5.8,31,0.00,,,0.00,WUHU216WMR968SP,2013-02-20 16:26:00,
2013-02-20 10:31:00,34.2,6.5,29.94,North,353,0.0,5.8,31,0.00,,,0.00,WUHU216WMR968SP,2013-02-20 16:31:00,
2013-02-20 10:36:00,34.0,6.3,29.94,NNE,21,0.0,4.9,31,0.00,,,0.00,WUHU216WMR968SP,2013-02-20 16:36:00,
2013-02-20 10:41:00,34.2,6.5,29.94,North,353,0.0,4.9,31,0.00,,,0.00,WUHU216WMR968SP,2013-02-20 16:41:00,
2013-02-20 10:46:00,34.3,6.5,29.94,NNE,25,0.0,4.0,31,0.00,,,0.00,WUHU216WMR968SP,2013-02-20 16:46:00,
2013-02-20 10:51:00,34.5,6.7,29.91,NE,34,0.0,4.0,31,0.00,,,0.00,WUHU216WMR968SP,2013-02-20 16:51:00,
2013-02-20 10:56:00,34.7,6.9,29.91,NE,53,0.0,4.0,31,0.00,,,0.00,WUHU216WMR968SP,2013-02-20 16:56:00,
2013-02-20 11:01:00,34.9,7.1,29.91,North,353,0.0,3.6,31,0.00,,,0.00,WUHU216WMR968SP,2013-02-20 17:01:00,
2013-02-20 11:06:00,35.4,7.5,29.91,North,6,2.2,4.9,31,0.00,,,0.00,WUHU216WMR968SP,2013-02-20 17:06:00,
2013-02-20 11:11:00,35.6,7.0,29.91,NNE,27,2.2,4.9,30,0.00,,,0.00,WUHU216WMR968SP,2013-02-20 17:11:00,
2013-02-20 11:16:00,35.6,7.0,29.91,NNE,14,3.6,5.8,30,0.00,,,0.00,WUHU216WMR968SP,2013-02-20 17:16:00,
2013-02-20 11:21:00,35.4,6.8,29.91,NE,53,3.6,8.1,30,0.00,,,0.00,WUHU216WMR968SP,2013-02-20 17:21:00,
2013-02-20 11:26:00,35.4,6.8,29.91,NE,42,0.0,8.1,30,0.00,,,0.00,WUHU216WMR968SP,2013-02-20 17:26:00,
2013-02-20 11:31:00,35.6,7.0,29.91,NE,35,4.0,7.6,30,0.00,,,0.00,WUHU216WMR968SP,2013-02-20 17:31:00,
2013-02-20 11:36:00,35.6,7.0,29.91,NNW,342,3.1,7.6,30,0.00,,,0.00,WUHU216WMR968SP,2013-02-20 17:36:00,
2013-02-20 11:41:00,35.4,6.8,29.91,North,4,2.7,10.1,30,0.00,,,0.00,WUHU216WMR968SP,2013-02-20 17:41:00,
2013-02-20 11:46:00,35.6,7.0,29.91,ENE,59,2.2,10.1,30,0.00,,,0.00,WUHU216WMR968SP,2013-02-20 17:46:00,
2013-02-20 11:51:00,35.8,7.1,29.88,NE,36,4.9,7.2,30,0.00,,,0.00,WUHU216WMR968SP,2013-02-20 17:51:00,
2013-02-20 11:56:00,35.8,7.1,29.88,North,353,4.5,8.1,30,0.00,,,0.00,WUHU216WMR968SP,2013-02-20 17:56:00,
2013-02-20 12:01:00,35.8,7.1,29.88,North,353,6.3,9.6,30,0.00,,,0.00,WUHU216WMR968SP,2013-02-20 18:01:00,
2013-02-20 12:06:00,35.6,7.0,29.88,NNE,22,3.8,10.5,30,0.00,,,0.00,WUHU216WMR968SP,2013-02-20 18:06:00,
2013-02-20 12:11:00,35.4,6.8,29.88,NNE,20,6.7,10.5,30,0.00,,,0.00,WUHU216WMR968SP,2013-02-20 18:11:00,
2013-02-20 12:16:00,35.4,6.8,29.88,North,3,5.2,10.5,30,0.00,,,0.00,WUHU216WMR968SP,2013-02-20 18:16:00,
2013-02-20 12:21:00,35.4,6.8,29.85,NE,46,5.8,11.0,30,0.00,,,0.00,WUHU216WMR968SP,2013-02-20 18:21:00,
2013-02-20 12:26:00,35.2,6.6,29.85,NE,37,4.1,11.0,30,0.00,,,0.00,WUHU216WMR968SP,2013-02-20 18:26:00,
2013-02-20 12:31:00,34.9,6.4,29.85,North,0,5.7,11.0,30,0.00,,,0.00,WUHU216WMR968SP,2013-02-20 18:31:00,
2013-02-20 12:36:00,34.7,6.2,29.85,NNE,16,4.0,11.0,30,0.00,,,0.00,WUHU216WMR968SP,2013-02-20 18:36:00,
2013-02-20 12:41:00,34.7,6.2,29.85,NNE,23,5.4,9.2,30,0.00,,,0.00,WUHU216WMR968SP,2013-02-20 18:41:00,
2013-02-20 12:46:00,34.9,6.4,29.85,NNE,32,4.1,8.7,30,0.00,,,0.00,WUHU216WMR968SP,2013-02-20 18:46:00,
2013-02-20 12:51:00,35.1,6.5,29.85,North,0,0.0,8.7,30,0.00,,,0.00,WUHU216WMR968SP,2013-02-20 18:51:00,
2013-02-20 12:56:00,35.6,7.0,29.85,ESE,117,0.0,7.6,30,0.00,,,0.00,WUHU216WMR968SP,2013-02-20 18:56:00,
2013-02-20 13:01:00,36.0,7.3,29.85,East,89,0.0,3.6,30,0.00,,,0.00,WUHU216WMR968SP,2013-02-20 19:01:00,
2013-02-20 13:06:00,36.0,7.3,29.91,East,89,0.0,0.0,30,0.00,,,0.00,WUHU216WMR968SP,2013-02-20 19:06:00,
2013-02-20 13:11:00,36.0,7.3,29.91,East,89,0.0,0.0,30,0.00,,,0.00,WUHU216WMR968SP,2013-02-20 19:11:00,
2013-02-20 13:16:00,36.0,6.6,29.91,NW,316,0.0,2.7,29,0.00,,,0.00,WUHU216WMR968SP,2013-02-20 19:16:00,
2013-02-20 13:21:00,36.0,7.3,29.91,NW,316,0.0,2.7,30,0.00,,,0.00,WUHU216WMR968SP,2013-02-20 19:21:00,
2013-02-20 13:26:00,36.1,7.4,29.91,North,0,0.0,2.2,30,0.00,,,0.00,WUHU216WMR968SP,2013-02-20 19:26:00,
2013-02-20 13:31:00,36.3,7.6,29.91,NNE,20,0.0,2.2,30,0.00,,,0.00,WUHU216WMR968SP,2013-02-20 19:31:00,
2013-02-20 13:36:00,36.9,7.4,29.88,South,191,0.0,2.2,29,0.00,,,0.00,WUHU216WMR968SP,2013-02-20 19:36:00,
2013-02-20 13:41:00,37.2,8.4,29.88,South,173,0.0,0.0,30,0.00,,,0.00,WUHU216WMR968SP,2013-02-20 19:41:00,
2013-02-20 13:46:00,37.4,7.8,29.88,NE,56,0.0,0.0,29,0.00,,,0.00,WUHU216WMR968SP,2013-02-20 19:46:00,
2013-02-20 13:51:00,37.2,7.6,29.88,NE,44,0.0,4.0,29,0.00,,,0.00,WUHU216WMR968SP,2013-02-20 19:51:00,
2013-02-20 13:56:00,37.4,7.8,29.88,North,357,0.0,4.0,29,0.00,,,0.00,WUHU216WMR968SP,2013-02-20 19:56:00,
2013-02-20 14:01:00,37.4,7.8,29.88,North,7,0.0,2.2,29,0.00,,,0.00,WUHU216WMR968SP,2013-02-20 20:01:00,
2013-02-20 14:06:00,37.8,8.2,29.88,NE,53,0.0,0.0,29,0.00,,,0.00,WUHU216WMR968SP,2013-02-20 20:06:00,
2013-02-20 14:11:00,37.9,8.2,29.88,East,84,0.0,0.0,29,0.00,,,0.00,WUHU216WMR968SP,2013-02-20 20:11:00,
2013-02-20 14:16:00,38.3,8.6,29.88,NE,44,0.0,3.6,29,0.00,,,0.00,WUHU216WMR968SP,2013-02-20 20:16:00,
2013-02-20 14:21:00,38.8,6.6,29.85,North,10,2.7,4.0,26,0.00,,,0.00,WUHU216WMR968SP,2013-02-20 20:21:00,
2013-02-20 14:26:00,39.0,6.8,29.85,ENE,59,2.2,4.0,26,0.00,,,0.00,WUHU216WMR968SP,2013-02-20 20:26:00,
2013-02-20 14:31:00,39.0,6.8,29.85,ENE,71,3.1,5.4,26,0.00,,,0.00,WUHU216WMR968SP,2013-02-20 20:31:00,
2013-02-20 14:36:00,39.4,7.2,29.83,NNE,24,3.3,9.2,26,0.00,,,0.00,WUHU216WMR968SP,2013-02-20 20:36:00,
2013-02-20 14:41:00,38.8,6.6,29.83,NE,38,3.3,9.2,26,0.00,,,0.00,WUHU216WMR968SP,2013-02-20 20:41:00,
2013-02-20 14:46:00,38.1,6.0,29.83,NNE,28,3.6,8.1,26,0.00,,,0.00,WUHU216WMR968SP,2013-02-20 20:46:00,
2013-02-20 14:51:00,37.8,5.8,29.83,North,7,0.0,6.3,26,0.00,,,0.00,WUHU216WMR968SP,2013-02-20 20:51:00,
2013-02-20 14:56:00,37.6,5.6,29.83,NNE,12,0.0,5.4,26,0.00,,,0.00,WUHU216WMR968SP,2013-02-20 20:56:00,
2013-02-20 15:01:00,37.6,5.6,29.83,East,80,2.7,5.4,26,0.00,,,0.00,WUHU216WMR968SP,2013-02-20 21:01:00,
2013-02-20 15:06:00,37.4,5.4,29.83,NNE,20,2.7,5.4,26,0.00,,,0.00,WUHU216WMR968SP,2013-02-20 21:06:00,
2013-02-20 15:11:00,37.4,5.4,29.83,NE,35,2.9,5.4,26,0.00,,,0.00,WUHU216WMR968SP,2013-02-20 21:11:00,
2013-02-20 15:16:00,37.2,6.1,29.83,NNE,24,3.1,5.4,27,0.00,,,0.00,WUHU216WMR968SP,2013-02-20 21:16:00,
2013-02-20 15:21:00,37.4,5.4,29.83,North,6,2.2,5.4,26,0.00,,,0.00,WUHU216WMR968SP,2013-02-20 21:21:00,
2013-02-20 15:26:00,37.8,5.8,29.83,NE,41,3.1,5.8,26,0.00,,,0.00,WUHU216WMR968SP,2013-02-20 21:26:00,
2013-02-20 15:31:00,37.9,5.9,29.83,NNE,28,0.0,5.8,26,0.00,,,0.00,WUHU216WMR968SP,2013-02-20 21:31:00,
2013-02-20 15:36:00,37.9,5.9,29.80,NNE,31,2.2,5.4,26,0.00,,,0.00,WUHU216WMR968SP,2013-02-20 21:36:00,
2013-02-20 15:41:00,38.1,8.4,29.80,ENE,59,0.0,5.4,29,0.00,,,0.00,WUHU216WMR968SP,2013-02-20 21:41:00,
2013-02-20 15:46:00,38.5,6.4,29.80,NE,49,2.7,4.9,26,0.00,,,0.00,WUHU216WMR968SP,2013-02-20 21:46:00,
2013-02-20 15:52:00,38.5,6.4,29.80,NE,54,3.0,4.9,26,0.00,,,0.00,WUHU216WMR968SP,2013-02-20 21:52:00,
2013-02-20 15:57:00,38.3,6.2,29.80,NE,46,2.7,5.4,26,0.00,,,0.00,WUHU216WMR968SP,2013-02-20 21:57:00,
2013-02-20 16:01:00,38.5,6.4,29.80,NNE,26,2.7,6.3,26,0.00,,,0.00,WUHU216WMR968SP,2013-02-20 22:01:00,
2013-02-20 16:06:00,38.5,6.4,29.80,NE,42,2.7,6.3,26,0.00,,,0.00,WUHU216WMR968SP,2013-02-20 22:06:00,
2013-02-20 16:12:00,38.1,6.0,29.80,ENE,67,2.9,5.8,26,0.00,,,0.00,WUHU216WMR968SP,2013-02-20 22:12:00,
2013-02-20 16:17:00,37.8,5.8,29.80,NE,43,3.1,5.8,26,0.00,,,0.00,WUHU216WMR968SP,2013-02-20 22:17:00,
2013-02-20 16:21:00,37.6,5.6,29.80,North,3,0.0,5.4,26,0.00,,,0.00,WUHU216WMR968SP,2013-02-20 22:21:00,
2013-02-20 16:26:00,37.8,8.2,29.80,North,1,0.0,3.6,29,0.00,,,0.00,WUHU216WMR968SP,2013-02-20 22:26:00,
2013-02-20 16:31:00,37.4,7.8,29.80,NE,45,2.7,4.9,29,0.00,,,0.00,WUHU216WMR968SP,2013-02-20 22:31:00,
2013-02-20 16:36:00,37.0,7.5,29.80,NE,44,0.0,4.9,29,0.00,,,0.00,WUHU216WMR968SP,2013-02-20 22:36:00,
2013-02-20 16:41:00,36.9,7.4,29.80,ENE,64,2.2,6.3,29,0.00,,,0.00,WUHU216WMR968SP,2013-02-20 22:41:00,
2013-02-20 16:46:00,36.9,7.4,29.80,NE,34,2.9,6.3,29,0.00,,,0.00,WUHU216WMR968SP,2013-02-20 22:46:00,
2013-02-20 16:51:00,37.0,7.5,29.80,North,9,0.0,4.9,29,0.00,,,0.00,WUHU216WMR968SP,2013-02-20 22:51:00,
2013-02-20 16:56:00,36.7,7.2,29.80,NNW,342,2.7,4.5,29,0.00,,,0.00,WUHU216WMR968SP,2013-02-20 22:56:00,
2013-02-20 17:02:00,36.1,6.7,29.80,North,0,0.0,4.5,29,0.00,,,0.00,WUHU216WMR968SP,2013-02-20 23:02:00,
2013-02-20 17:07:00,36.3,7.6,29.80,NNE,32,3.0,5.4,30,0.00,,,0.00,WUHU216WMR968SP,2013-02-20 23:07:00,
2013-02-20 17:12:00,36.5,7.8,29.80,NNE,22,2.2,5.4,30,0.00,,,0.00,WUHU216WMR968SP,2013-02-20 23:12:00,
2013-02-20 17:17:00,36.3,7.6,29.80,NNE,26,4.2,8.3,30,0.00,,,0.00,WUHU216WMR968SP,2013-02-20 23:17:00,
2013-02-20 17:22:00,35.2,7.3,29.80,NNE,21,2.5,8.3,31,0.00,,,0.00,WUHU216WMR968SP,2013-02-20 23:22:00,
2013-02-20 17:27:00,34.0,6.3,29.80,NNE,33,2.7,5.4,31,0.00,,,0.00,WUHU216WMR968SP,2013-02-20 23:27:00,
2013-02-20 17:32:00,33.6,7.3,29.80,NE,52,0.0,3.6,33,0.00,,,0.00,WUHU216WMR968SP,2013-02-20 23:32:00,
2013-02-20 17:37:00,33.8,8.1,29.80,NNE,28,0.0,4.0,34,0.00,,,0.00,WUHU216WMR968SP,2013-02-20 23:37:00,
2013-02-20 17:42:00,33.8,8.8,29.80,North,0,0.0,4.0,35,0.00,,,0.00,WUHU216WMR968SP,2013-02-20 23:42:00,
2013-02-20 17:47:00,34.5,9.4,29.80,North,4,0.0,4.0,35,0.00,,,0.00,WUHU216WMR968SP,2013-02-20 23:47:00,
2013-02-20 17:52:00,35.1,9.9,29.80,NNE,31,2.2,4.9,35,0.00,,,0.00,WUHU216WMR968SP,2013-02-20 23:52:00,
2013-02-20 17:57:00,35.2,10.0,29.80,NE,41,0.0,4.9,35,0.00,,,0.00,WUHU216WMR968SP,2013-02-20 23:57:00,
2013-02-20 18:02:00,35.4,10.2,29.80,North,9,0.0,4.0,35,0.00,,,0.00,WUHU216WMR968SP,2013-02-21 00:02:00,
2013-02-20 18:07:00,35.4,9.6,29.80,North,9,0.0,4.0,34,0.00,,,0.00,WUHU216WMR968SP,2013-02-21 00:07:00,
2013-02-20 18:12:00,35.6,9.7,29.80,NNE,30,0.0,0.0,34,0.00,,,0.00,WUHU216WMR968SP,2013-02-21 00:12:00,
2013-02-20 18:17:00,35.8,9.9,29.80,NNE,30,0.0,0.0,34,0.00,,,0.00,WUHU216WMR968SP,2013-02-21 00:17:00,
2013-02-20 18:22:00,35.8,9.9,29.83,NNE,21,0.0,3.6,34,0.00,,,0.00,WUHU216WMR968SP,2013-02-21 00:22:00,
2013-02-20 18:27:00,35.6,9.1,29.83,NNW,340,0.0,3.6,33,0.00,,,0.00,WUHU216WMR968SP,2013-02-21 00:27:00,
2013-02-20 18:32:00,35.4,9.6,29.83,North,358,2.2,4.0,34,0.00,,,0.00,WUHU216WMR968SP,2013-02-21 00:32:00,
2013-02-20 18:37:00,34.3,9.2,29.83,North,0,0.0,4.0,35,0.00,,,0.00,WUHU216WMR968SP,2013-02-21 00:37:00,
2013-02-20 18:42:00,33.1,11.2,29.83,NE,38,0.0,4.0,40,0.00,,,0.00,WUHU216WMR968SP,2013-02-21 00:42:00,
2013-02-20 18:47:00,32.5,12.3,29.83,NE,38,0.0,2.7,43,0.00,,,0.00,WUHU216WMR968SP,2013-02-21 00:47:00,
2013-02-20 18:52:00,32.4,13.8,29.80,NNE,19,2.5,3.6,46,0.00,,,0.00,WUHU216WMR968SP,2013-02-21 00:52:00,
2013-02-20 18:57:00,32.2,15.1,29.80,NNE,30,0.0,3.6,49,0.00,,,0.00,WUHU216WMR968SP,2013-02-21 00:57:00,
2013-02-20 19:02:00,32.0,15.4,29.80,South,179,0.0,0.0,50,0.00,,,0.00,WUHU216WMR968SP,2013-02-21 01:02:00,
2013-02-20 19:07:00,31.8,15.2,29.83,North,353,0.0,2.2,50,0.00,,,0.00,WUHU216WMR968SP,2013-02-21 01:07:00,
2013-02-20 19:12:00,31.5,15.9,29.83,North,357,0.0,2.2,52,0.00,,,0.00,WUHU216WMR968SP,2013-02-21 01:12:00,
2013-02-20 19:17:00,31.5,16.7,29.83,North,5,0.0,2.2,54,0.00,,,0.00,WUHU216WMR968SP,2013-02-21 01:17:00,
2013-02-20 19:22:00,31.5,17.2,29.83,North,6,0.0,2.2,55,0.00,,,0.00,WUHU216WMR968SP,2013-02-21 01:22:00,
2013-02-20 19:27:00,31.6,17.3,29.83,NNE,28,0.0,3.1,55,0.00,,,0.00,WUHU216WMR968SP,2013-02-21 01:27:00,
2013-02-20 19:32:00,31.6,17.3,29.83,NNE,28,0.0,3.1,55,0.00,,,0.00,WUHU216WMR968SP,2013-02-21 01:32:00,
2013-02-20 19:37:00,31.8,17.5,29.80,NNE,28,0.0,2.7,55,0.00,,,0.00,WUHU216WMR968SP,2013-02-21 01:37:00,
2013-02-20 19:42:00,32.2,18.7,29.80,NNE,15,0.0,2.7,57,0.00,,,0.00,WUHU216WMR968SP,2013-02-21 01:42:00,
2013-02-20 19:47:00,32.2,19.1,29.80,NNE,15,0.0,2.7,58,0.00,,,0.00,WUHU216WMR968SP,2013-02-21 01:47:00,
2013-02-20 19:52:00,32.2,19.1,29.83,ENE,59,0.0,0.0,58,0.00,,,0.00,WUHU216WMR968SP,2013-02-21 01:52:00,
2013-02-20 19:57:00,32.2,19.5,29.83,NE,50,0.0,0.0,59,0.00,,,0.00,WUHU216WMR968SP,2013-02-21 01:57:00,
2013-02-20 20:02:00,32.0,19.7,29.83,North,353,0.0,0.0,60,0.00,,,0.00,WUHU216WMR968SP,2013-02-21 02:02:00,
2013-02-20 20:07:00,32.0,20.1,29.80,North,353,0.0,0.0,61,0.00,,,0.00,WUHU216WMR968SP,2013-02-21 02:07:00,
2013-02-20 20:12:00,32.0,20.1,29.80,NNE,33,0.0,0.0,61,0.00,,,0.00,WUHU216WMR968SP,2013-02-21 02:12:00,
2013-02-20 20:17:00,31.8,19.9,29.80,NNE,33,0.0,0.0,61,0.00,,,0.00,WUHU216WMR968SP,2013-02-21 02:17:00,
2013-02-20 20:22:00,31.3,19.5,29.80,NNE,32,0.0,3.6,61,0.00,,,0.00,WUHU216WMR968SP,2013-02-21 02:22:00,
2013-02-20 20:27:00,31.1,20.0,29.80,NNE,32,0.0,3.6,63,0.00,,,0.00,WUHU216WMR968SP,2013-02-21 02:27:00,
2013-02-20 20:32:00,31.1,20.0,29.80,NE,50,0.0,2.7,63,0.00,,,0.00,WUHU216WMR968SP,2013-02-21 02:32:00,
2013-02-20 20:37:00,31.1,20.0,29.80,NE,47,0.0,2.7,63,0.00,,,0.00,WUHU216WMR968SP,2013-02-21 02:37:00,
2013-02-20 20:42:00,30.9,20.2,29.80,East,83,0.0,2.7,64,0.00,,,0.00,WUHU216WMR968SP,2013-02-21 02:42:00,
2013-02-20 20:47:00,31.1,20.4,29.80,East,82,0.0,0.0,64,0.00,,,0.00,WUHU216WMR968SP,2013-02-21 02:47:00,
2013-02-20 20:52:00,31.1,20.4,29.80,East,82,0.0,0.0,64,0.00,,,0.00,WUHU216WMR968SP,2013-02-21 02:52:00,
2013-02-20 20:57:00,31.1,20.4,29.80,East,82,0.0,0.0,64,0.00,,,0.00,WUHU216WMR968SP,2013-02-21 02:57:00,
2013-02-20 21:02:00,31.1,20.4,29.80,East,82,0.0,0.0,64,0.00,,,0.00,WUHU216WMR968SP,2013-02-21 03:02:00,
2013-02-20 21:07:00,30.9,20.2,29.80,NE,46,0.0,0.0,64,0.00,,,0.00,WUHU216WMR968SP,2013-02-21 03:07:00,
2013-02-20 21:12:00,30.7,20.0,29.80,NE,46,0.0,0.0,64,0.00,,,0.00,WUHU216WMR968SP,2013-02-21 03:12:00,
2013-02-20 21:17:00,30.7,19.6,29.80,NE,46,0.0,0.0,63,0.00,,,0.00,WUHU216WMR968SP,2013-02-21 03:17:00,
2013-02-20 21:22:00,30.9,19.8,29.80,NE,39,0.0,0.0,63,0.00,,,0.00,WUHU216WMR968SP,2013-02-21 03:22:00,
2013-02-20 21:27:00,30.9,19.8,29.80,NNE,29,0.0,0.0,63,0.00,,,0.00,WUHU216WMR968SP,2013-02-21 03:27:00,
2013-02-20 21:32:00,30.9,19.8,29.80,NNE,29,0.0,0.0,63,0.00,,,0.00,WUHU216WMR968SP,2013-02-21 03:32:00,
2013-02-20 21:37:00,30.9,19.8,29.80,NNE,29,0.0,0.0,63,0.00,,,0.00,WUHU216WMR968SP,2013-02-21 03:37:00,
2013-02-20 21:42:00,30.7,19.6,29.80,NNE,32,0.0,4.0,63,0.00,,,0.00,WUHU216WMR968SP,2013-02-21 03:42:00,
2013-02-20 21:47:00,30.7,19.6,29.80,NNE,25,0.0,4.0,63,0.00,,,0.00,WUHU216WMR968SP,2013-02-21 03:47:00,
2013-02-20 21:52:00,30.7,20.0,29.80,NNE,25,0.0,4.0,64,0.00,,,0.00,WUHU216WMR968SP,2013-02-21 03:52:00,
2013-02-20 21:57:00,30.7,20.0,29.80,NNE,21,0.0,0.0,64,0.00,,,0.00,WUHU216WMR968SP,2013-02-21 03:57:00,
2013-02-20 22:03:00,30.7,19.6,29.80,NNE,18,0.0,2.7,63,0.00,,,0.00,WUHU216WMR968SP,2013-02-21 04:03:00,
2013-02-20 22:08:00,30.9,19.8,29.80,NNE,24,0.0,2.7,63,0.00,,,0.00,WUHU216WMR968SP,2013-02-21 04:08:00,
2013-02-20 22:13:00,30.9,19.8,29.80,North,10,0.0,2.7,63,0.00,,,0.00,WUHU216WMR968SP,2013-02-21 04:13:00,
2013-02-20 22:18:00,30.9,19.8,29.80,North,353,0.0,2.7,63,0.00,,,0.00,WUHU216WMR968SP,2013-02-21 04:18:00,
2013-02-20 22:23:00,31.1,20.0,29.80,North,353,0.0,0.0,63,0.00,,,0.00,WUHU216WMR968SP,2013-02-21 04:23:00,
2013-02-20 22:28:00,30.9,19.8,29.80,North,353,0.0,0.0,63,0.00,,,0.00,WUHU216WMR968SP,2013-02-21 04:28:00,
2013-02-20 22:33:00,30.9,19.8,29.80,NNE,25,0.0,0.0,63,0.00,,,0.00,WUHU216WMR968SP,2013-02-21 04:33:00,
2013-02-20 22:38:00,31.1,20.0,29.80,NNE,25,0.0,0.0,63,0.00,,,0.00,WUHU216WMR968SP,2013-02-21 04:38:00,
2013-02-20 22:43:00,31.1,20.0,29.80,NNE,25,0.0,0.0,63,0.00,,,0.00,WUHU216WMR968SP,2013-02-21 04:43:00,
2013-02-20 22:48:00,31.1,20.0,29.80,NNE,25,0.0,0.0,63,0.00,,,0.00,WUHU216WMR968SP,2013-02-21 04:48:00,
2013-02-20 22:53:00,31.1,20.0,29.80,NE,42,0.0,0.0,63,0.00,,,0.00,WUHU216WMR968SP,2013-02-21 04:53:00,
2013-02-20 22:58:00,31.1,20.0,29.80,NNE,30,0.0,0.0,63,0.00,,,0.00,WUHU216WMR968SP,2013-02-21 04:58:00,
2013-02-20 23:00:00,31.1,20.0,29.80,NNE,29,0.0,0.0,63,0.00,,,0.00,WUHU216WMR968SP,2013-02-21 05:00:00,
2013-02-20 23:05:00,31.1,20.0,29.80,NE,35,0.0,2.2,63,0.00,,,0.00,WUHU216WMR968SP,2013-02-21 05:05:00,
2013-02-20 23:10:00,31.1,20.0,29.80,NNE,30,0.0,3.1,63,0.00,,,0.00,WUHU216WMR968SP,2013-02-21 05:10:00,
2013-02-20 23:15:00,31.1,19.6,29.80,NE,38,0.0,3.1,62,0.00,,,0.00,WUHU216WMR968SP,2013-02-21 05:15:00,
2013-02-20 23:20:00,31.1,20.0,29.77,NE,38,0.0,3.1,63,0.00,,,0.00,WUHU216WMR968SP,2013-02-21 05:20:00,
2013-02-20 23:25:00,31.1,19.6,29.77,NE,35,0.0,5.8,62,0.00,,,0.00,WUHU216WMR968SP,2013-02-21 05:25:00,
2013-02-20 23:30:00,31.1,19.6,29.77,NE,35,0.0,5.8,62,0.00,,,0.00,WUHU216WMR968SP,2013-02-21 05:30:00,
2013-02-20 23:35:00,31.1,19.3,29.77,NE,35,0.0,5.8,61,0.00,,,0.00,WUHU216WMR968SP,2013-02-21 05:35:00,
2013-02-20 23:40:00,30.9,19.1,29.77,NE,35,0.0,5.8,61,0.00,,,0.00,WUHU216WMR968SP,2013-02-21 05:40:00,
2013-02-20 23:45:00,31.1,19.3,29.77,ENE,58,0.0,5.8,61,0.00,,,0.00,WUHU216WMR968SP,2013-02-21 05:45:00,
2013-02-20 23:50:00,31.1,19.3,29.77,ENE,58,0.0,5.8,61,0.00,,,0.00,WUHU216WMR968SP,2013-02-21 05:50:00,
2013-02-20 23:55:00,31.3,19.5,29.77,ENE,58,0.0,0.0,61,0.00,,,0.00,WUHU216WMR968SP,2013-02-21 05:55:00,